Regional Weather Roundup
Issued by NWS

Home | Current Version | Previous Version | Text Only | Print | Product List | Glossary Off
Versions: 1 2 3 4 5 6 7 8 9 10 11 12 13 14 15 16 17 18 19 20 21 22 23 24 25 26 27 28 29 30 31 32 33 34 35 36 37 38 39 40 41 42 43 44 45 46 47 48 49 50

000
ASUS43 KLOT 281104
RWRIL

ILLINOIS REGIONAL WEATHER ROUNDUP
NATIONAL WEATHER SERVICE CHICAGO/ROMEOVILLE IL
600 AM CDT SAT MAY 28 2016

NOTE: "FAIR" INDICATES FEW OR NO CLOUDS BELOW 12,000 FEET WITH NO
SIGNIFICANT WEATHER AND/OR OBSTRUCTIONS TO VISIBILITY.

* THESE STATIONS ARE NOT UNDER NWS QUALITY CONTROL. THEY ALSO MAY NOT
  REPORT WEATHER SUCH AS PRECIPITATION OR FOG.

ILZ001-002-007-009-015-016-024-281200-
NORTHWEST ILLINOIS

CITY           SKY/WX    TMP DP  RH WIND       PRES   REMARKS
MOLINE         MOCLDY    69  64  84 SW7       29.79R
STERLING*      CLOUDY    69  67  93 S7        29.82R
$$

ILZ003-004-008-010-011-017-018-281200-
NORTH CENTRAL ILLINOIS

CITY           SKY/WX    TMP DP  RH WIND       PRES   REMARKS
ROCKFORD       CLOUDY    69  65  86 S15       29.84R
FREEPORT*      CLOUDY    67  65  94 S15       29.81R
ROCHELLE*      CLOUDY    68  65  91 S13       29.84R
$$

ILZ005-006-012>014-019>023-281200-
NORTHEAST ILLINOIS

CITY           SKY/WX    TMP DP  RH WIND       PRES   REMARKS
CHICAGO-OHARE  CLOUDY    70  64  81 S17       29.85S
CHICAGO-MIDWAY CLOUDY    72  63  73 S15G24    29.86S
AURORA         CLOUDY    70  65  84 S15       29.85S
LANSING*       PTCLDY    71  63  75 S17G24    29.89S
WAUKEGAN       CLOUDY    64  62  93 SE7       29.85S
DUPAGE AIRPORT CLOUDY    70  63  78 S17       29.85R
WHEELING       CLOUDY    70  64  81 S14       29.86S
NORTHERLY ISL    N/A     72  62  71 S13         N/A
NORTHERLY ISL    N/A     72  62  71 S13         N/A
$$

LMZ740>746-281200-
SOUTHERN LAKE MICHIGAN

STATION/POSITION SKY/WX   TEMP    WIND        PRES    VSBY  WAVE
                          AIR SEA DIR/SP/G                  HT/PER
                          (F)     (DEG/KT/KT) (MB)    (MI)  (FT/S)
SOUTHERN BUOY              56 50  140/ 10/ 12 1011.4          1/ 3
WILMETTE HARBOR            57 53  180/  6/  8   N/A           1/ 2
HARRISON CRIB              66     170/ 15/ 18   N/A
BURNHAM HARBOR             72     200/ 12/ 17   N/A
CALUMET HARBOR             73     170/ 11/ 19 1011.0R
BURNS HARBOR               71     170/  6/ 20 1012.5S
MICHIGAN CITY              73     150/ 10/ 13   N/A
MICHIGAN CITY 6N           68 58  170/ 10/ 14   N/A           1
ST. JOSEPH                 68 61  140/ 10/ 12   N/A           1/ 3
$$

ILZ025>027-034>036-040-047-049-050-058-095>099-281200-
WEST-CENTRAL ILLINOIS

CITY           SKY/WX    TMP DP  RH WIND       PRES   REMARKS
QUINCY         CLOUDY    68  65  90 S12       29.82R
MACOMB*        CLOUDY    69  67  94 S10       29.85R
PITTSFIELD*    CLOUDY    68  66  94 S7        29.86R
$$

ILZ028>032-037-038-041>044-048-051>054-059>061-281200-
CENTRAL ILLINOIS

CITY           SKY/WX    TMP DP  RH WIND       PRES   REMARKS
BLOOMINGTON    CLOUDY    69  67  93 S20       29.90R
DECATUR        CLOUDY    69  65  86 S14       29.91R
PEORIA         CLOUDY    70  65  84 S17       29.85R
SPRINGFIELD    CLOUDY    70  65  84 S14       29.87R
TAYLORVILLE    NOT AVBL
$$

ILZ033-039-045-046-055>057-062-063-281200-
EAST-CENTRAL ILLINOIS

CITY           SKY/WX    TMP DP  RH WIND       PRES   REMARKS
CHAMPAIGN      CLOUDY    69  64  84 S17       29.93R
MATTOON        CLOUDY    70  64  81 S9        29.94R
$$

ILZ079-100>102-281200-
SOUTHWEST ILLINOIS

CITY           SKY/WX    TMP DP  RH WIND       PRES   REMARKS
BELLEVILLE     CLOUDY    67  67 100 VRB5      29.90R
CAHOKIA*         N/A     68  64  87 S12G18    29.88F
SPARTA*        LGT RAIN  67  64  90 S8        29.94R
$$

ILZ064>066-069>071-074>076-080>082-084>086-088>090-092>094-281200-
SOUTH-CENTRAL ILLINOIS

CITY           SKY/WX    TMP DP  RH WIND       PRES   REMARKS
CARBONDALE     CLOUDY    69  64  84 S8        29.94R
MT. VERNON     CLOUDY    70  63  78 S7        29.95R
SALEM*         CLOUDY    70  65  84 S3        29.94R
$$

ILZ067-068-072-073-078-083-087-091-281200-
SOUTHEAST ILLINOIS

CITY           SKY/WX    TMP DP  RH WIND       PRES   REMARKS
LAWRENCEVILLE  CLOUDY    72  67  84 S10       29.97R
FLORA*         CLOUDY    69  67  93 SE5       29.95R
HARRISBURG*    CLOUDY    69  66  91 SE7       29.96S
ROBINSON*      CLOUDY    70  65  85 S6        29.97R
$$

ABBREVIATIONS USED IN REMARKS
   TC - TEMPERATURE IN CELSIUS
  WCI - WIND CHILL INDEX
   HX - HEAT INDEX
  VSB - VISIBILITY
$$




USA.gov is the U.S. government's official web portal to all federal, state and local government web resources and services.